Terminal Aerodrome Forecast
Issued by NWS Grand Junction, CO

Home | Current Version | Previous Version | Text Only | Print | Product List | Glossary On
Versions: 1 2 3 4 5 6 7 8 9 10 11 12 13 14 15 16 17 18 19 20 21 22 23 24
000
FTUS45 KGJT 181730
TAFGJT
TAF
KGJT 181730Z 1818/1918 18005KT P6SM FEW110
     FM181900 29007KT P6SM FEW110
     FM190200 03006KT P6SM FEW150
     FM190600 11008KT P6SM FEW150=

USA.gov is the U.S. government's official web portal to all federal, state and local government web resources and services.